Aérodrome :
LOGIN :

S'inscrire | Disclaimer

   EN    FR    IT 

 










Légende :    VFR   VFR Marginal   IFR   IFR Intensif   IFR Très Intensif
Visi : 
Plafond : 
>= 8 km
>= 3000ft
5 à 8 km
1000 à 3000 ft
1500m à 5 km
500 à 1000 ft
800 à 1500m
200 à 500 ft
< 800m
< 200 ft
Symboles :   Orages  Brouillard  Fortes neiges  Fortes précipitations  Vent > 20 kt
SIGMETs :   Divers  Orages  Givrage  Turbulence  Onde Orograph.  Cendres Volcan.






- Altitude de l'aérodrome : 13 ft
- Code IATA : CEQ


LFMD - Cannes Mandelieu

DERNIER METAR :
  • 130300Z AUTO 36003KT 320V050 CAVOK 05/03 Q1016 NOSIG

METARs EXPIRÉS :
  • 130230Z AUTO 36003KT 320V050 CAVOK 05/03 Q1016 NOSIG
  • 130200Z AUTO 36003KT 300V040 CAVOK 06/04 Q1016
  • 130130Z AUTO 03003KT 350V060 CAVOK 06/05 Q1016
  • 130100Z AUTO VRB03KT CAVOK 07/05 Q1016
  • 130030Z AUTO VRB02KT CAVOK 07/06 Q1016

TAF TAF LFMD
Valide du 13 à 03h jusqu'au 14 à 03h UTC


130200Z 1303/1403 36004KT CAVOK
BECMG 1309/1311 18008KT
BECMG 1317/1319 VRB02KT
TEMPO 1322/1403 36005KT
ATIS : +33 4 93 48 73 23



MET'MAP, la Météo Aéronautique d'un coup d'oeil ! - Copyright ORBIFLY Décembre 2007 - Disclaimer

ORBIFLY MET'MAP TEAM :

Programmation & Développement : Alexandra Zaïnal
Sur une idée originale de : Baudouin d'Aumeries
Assistance à la programmation : Marc-Olivier Méhu
Soutien technique & logistique : Manuel Goepfert

Contact : metmap@orbifly.com




SOURCES & CREDITS :

   NOAA